User: anonymous   Login
Location: Unspecified
(0.0000°N, 0.0000°E)
Time: 08:23:10
(UTC+00:00)
Language:

Nadezhda 6 - Orbit

View from above orbital plane
View from above orbital plane
View from above satellite
View from above satellite

Ground track
Ground track

The orbit data is extracted from the following two-line orbital elements,

1 26384U 00033A   24260.22664089  .00002928  00000-0  50407-3 0  9990
2 26384  97.7764 251.4131 0012147 236.1902 123.8148 14.69238467295058
Epoch (UTC): 16 September 2024 05:26:21
Eccentricity: 0.0012147
inclination: 97.7764°
perigee height: 655 km
apogee height: 672 km
right ascension of ascending node: 251.4131°
argument of perigee: 236.1902°
revolutions per day: 14.69238467
mean anomaly at epoch: 123.8148°
orbit number at epoch: 29505

The dashed part of the orbit path shows where the satellite is in the earth's shadow,  

DLR